Location: Unspecified
(0.0000°N, 0.0000°E)
Time: 01:56:51
(UTC+00:00)

Explorer 7 - All Passes

Search period start: 26 May 2019 00:00
Search period end: 05 June 2019 00:00
Orbit: 485 x 680 km, 50.3° (Epoch: 25 May)

Date Brightness Start Highest point End Pass type
(mag) Time Alt. Az. Time Alt. Az. Time Alt. Az.
26 May - 04:16:37 10° NW 04:20:24 46° SW 04:24:02 10° SSE visible
26 May - 14:39:08 10° SSE 14:42:05 16° SE 14:45:05 10° E daylight
26 May - 16:18:06 10° WSW 16:22:29 38° NW 16:27:00 10° NNE daylight
27 May - 02:42:18 10° N 02:45:06 18° NE 02:47:49 10° E night (unlit)
27 May - 04:22:28 10° WNW 04:25:25 20° SW 04:28:17 10° S night (unlit)
27 May - 14:42:59 10° S 14:47:07 32° SE 14:51:23 10° ENE daylight
27 May - 16:24:10 10° W 16:27:35 20° NW 16:31:05 10° N daylight
28 May - 02:46:24 10° NNW 02:50:12 40° NE 02:53:49 10° ESE night (unlit)
28 May - 14:47:33 10° SSW 14:52:08 66° SE 14:56:55 10° NE daylight
29 May - 02:51:13 10° NW 02:55:14 85° SW 02:59:05 10° SE night (unlit)
29 May - 14:52:37 10° SW 14:57:10 60° NW 15:01:55 10° NNE daylight
30 May - 01:18:24 10° NNE 01:19:51 12° NE 01:21:15 10° ENE night (unlit)
30 May - 02:56:34 10° WNW 03:00:16 35° SW 03:03:48 10° SSE night (unlit)
30 May - 13:18:31 10° S 13:21:49 20° SE 13:25:15 10° E daylight
30 May - 14:58:12 10° WSW 15:02:14 30° NW 15:06:25 10° N daylight
31 May - 01:21:35 10° N 01:24:59 24° NE 01:28:14 10° ESE night (unlit)
31 May - 03:02:44 10° W 03:05:17 16° SW 03:07:46 10° SSW night (unlit)
31 May - 13:22:38 10° SSW 13:26:50 39° SE 13:31:15 10° ENE daylight
31 May - 15:04:37 10° W 15:07:21 15° NW 15:10:08 10° NNW daylight
01 Jun - 01:26:00 10° NNW 01:30:04 54° NE 01:33:55 10° SE night (unlit)
01 Jun - 13:27:22 10° SW 13:31:52 83° SE 13:36:36 10° NE daylight
02 Jun - 01:30:59 10° NW 01:35:06 63° SW 01:38:59 10° SSE night (unlit)
02 Jun - 11:54:50 10° SSE 11:56:33 12° SE 11:58:18 10° ESE daylight
02 Jun - 13:32:36 10° SW 13:36:54 46° NW 13:41:26 10° NNE daylight
02 Jun - 23:57:07 10° NNE 23:59:43 16° NE 00:02:14 10° E night (unlit)
03 Jun - 01:36:33 10° WNW 01:40:06 28° SW 01:43:30 10° S night (unlit)
03 Jun - 11:58:02 10° S 12:01:35 24° SE 12:05:17 10° ENE daylight
03 Jun - 13:38:24 10° WSW 13:42:00 23° NW 13:45:43 10° N daylight
04 Jun - 00:00:59 10° NNW 00:04:50 32° NE 00:08:29 10° ESE night (unlit)
04 Jun - 01:43:08 10° W 01:45:07 13° SW 01:47:04 10° SSW night (unlit)
04 Jun - 12:02:22 10° SSW 12:06:35 49° SE 12:11:03 10° NE daylight
04 Jun - 13:45:33 10° WNW 13:47:08 12° NW 13:48:46 10° NNW daylight
